C/2024 L5 ( ATLAS )

Japanese version
Home page
Updated on September 27, 2024

---------------------------------------------------------------------

* Profile

Discovery Date June 14, 2024
Magnitude 17.6 mag
Discoverer Asteroid Terrestrial-Impact Last Alert System (ATLAS) search program

* Pictures

* Orbital Elements

Epoch 2024 Oct. 17.0 TT = JDT 2460600.5
T 2025 Mar. 10.49417 TT                                 Rudenko
q   3.4317531            (2000.0)            P               Q
z  -0.0108676      Peri.  290.53147     -0.86093788     -0.48552598
 +/-0.0000545      Node   139.16843     -0.33544304     +0.76620077
e   1.0372949      Incl.  166.57312     -0.38244468     +0.42095236
>From 207 observations 2024 June 14-Sept. 1, mean residual 0".5.

* Finding Charts

* Magnitudes Graph

        m1 = 8.5 + 5 log d + 10.0 log r

---------------------------------------------------------------------

The orbital elements are published on M.P.E.C. 2024-R10.
The charts are made with StellaNavigator Ver.11 (AstroArts).
The magnitudes graphs are made with Comet for Windows.

---------------------------------------------------------------------

Copyright(C) Seiichi Yoshida (comet@aerith.net). All rights reserved.